Date String (YYYY-MM-DD hh:mm:ss) UTC,Instrument flags,absolute air pressure of the measurement (hPa),sample flow rate (lpm),inlet stack bypass flow (lpm),air temperature of the measurement (°C),ambient temperature measured by the external sensor (°C),aerosol sample conditioner tube jacket temperature (°C),OPC LED temperature (°C),internal box temperature (°C),relative humidity of the measurement (%),span deviation,mass concentration of particles derived from Lorenz-Mie calculation of OPC scattering (μg/m³),mass concentration of particles derived from Lorenz-Mie calculation of OPC scattering (μg/m³),mass concentration of particles derived from Lorenz-Mie calculation of OPC scattering (μg/m³)
DateTimeUTC,F1_M11,P_M11,Q1_M11,Q2_M11,T1_M11,T2_M11,T3_M11,T4_M11,T5_M11,U1_M11,ZSPAN_M11,X0_M11,X2_M11,X1_M11
2024-06-08 23:00:00,SystemResetWarning,0828.6,5.00,000.00,029.3,027.6,000.0,038.0,030.9,036.6,0000.0,0027.10,0006.15,0004.11
2024-06-08 23:01:00,SystemResetWarning,0828.6,5.00,000.00,029.4,028.0,000.0,037.9,031.0,036.6,0000.0,0027.43,0006.17,0004.11
2024-06-08 23:02:00,SystemResetWarning,0828.7,5.00,000.00,029.4,028.3,000.0,037.9,031.1,036.5,0000.0,0027.21,0006.22,0004.11
2024-06-08 23:03:00,SystemResetWarning,0828.7,4.99,000.00,029.5,028.5,000.0,037.9,031.2,036.3,0000.0,0025.44,0006.22,0004.11
2024-06-08 23:04:00,SystemResetWarning,0828.7,4.99,000.00,029.5,028.7,000.0,037.9,031.3,036.0,0000.0,0024.35,0006.21,0004.11
2024-06-08 23:05:00,SystemResetWarning,0828.6,5.00,000.00,029.6,028.8,000.0,037.9,031.4,036.0,0000.0,0022.28,0006.21,0004.10
2024-06-08 23:06:00,SystemResetWarning,0828.7,5.00,000.00,029.6,029.0,000.0,038.0,031.5,035.9,0000.0,0020.99,0006.20,0004.10
2024-06-08 23:07:00,SystemResetWarning,0828.6,5.00,000.00,029.7,029.1,000.0,038.0,031.6,035.4,0000.0,0020.27,0006.10,0004.07
2024-06-08 23:08:00,SystemResetWarning,0828.6,5.00,000.00,029.8,029.2,000.0,038.0,031.6,035.0,0000.0,0019.56,0005.95,0004.02
2024-06-08 23:09:00,SystemResetWarning,0828.6,5.01,000.00,029.8,029.3,000.0,038.0,031.7,034.7,0000.0,0018.49,0005.84,0003.98
2024-06-08 23:10:00,SystemResetWarning,0828.6,4.99,000.00,029.9,029.4,000.0,038.0,031.7,034.4,0000.0,0017.25,0005.78,0003.92
2024-06-08 23:11:00,SystemResetWarning,0828.7,5.00,000.00,029.9,029.5,000.0,038.1,031.8,034.4,0000.0,0017.41,0005.65,0003.85
2024-06-08 23:12:00,SystemResetWarning,0828.6,5.01,000.00,030.0,029.6,000.0,038.1,031.8,034.5,0000.0,0017.08,0005.54,0003.78
2024-06-08 23:13:00,SystemResetWarning,0828.7,5.01,000.00,030.1,029.6,000.0,038.1,031.9,034.2,0000.0,0017.07,0005.42,0003.69
2024-06-08 23:14:00,SystemResetWarning,0828.6,5.00,000.00,030.1,029.7,000.0,038.2,031.9,034.1,0000.0,0017.42,0005.36,0003.62
2024-06-08 23:15:00,SystemResetWarning,0828.6,5.00,000.00,030.2,029.8,000.0,038.2,032.0,033.4,0000.0,0017.46,0005.20,0003.54
2024-06-08 23:16:00,SystemResetWarning,0828.7,5.00,000.00,030.2,029.8,000.0,038.3,032.0,033.6,0000.0,0018.07,0005.11,0003.48
2024-06-08 23:17:00,SystemResetWarning,0828.7,4.99,000.00,030.3,029.9,000.0,038.3,032.1,033.3,0000.0,0018.90,0005.03,0003.43
2024-06-08 23:18:00,SystemResetWarning,0828.7,4.99,000.00,030.3,029.9,000.0,038.4,032.1,032.9,0000.0,0018.79,0005.05,0003.40
2024-06-08 23:19:00,SystemResetWarning,0828.7,5.00,000.00,030.4,030.0,000.0,038.4,032.2,032.9,0000.0,0020.13,0005.08,0003.37
2024-06-08 23:20:00,SystemResetWarning,0828.7,5.01,000.00,030.4,030.0,000.0,038.5,032.2,033.2,0000.0,0022.38,0005.12,0003.35
2024-06-08 23:21:00,SystemResetWarning,0828.7,5.01,000.00,030.5,030.1,000.0,038.5,032.2,033.2,0000.0,0023.36,0005.07,0003.34
2024-06-08 23:22:00,SystemResetWarning,0828.8,5.00,000.00,030.5,030.1,000.0,038.5,032.3,033.0,0000.0,0024.47,0005.21,0003.34
2024-06-08 23:23:00,SystemResetWarning,0828.8,5.00,000.00,030.6,030.2,000.0,038.6,032.3,033.1,0000.0,0024.85,0005.35,0003.35
2024-06-08 23:24:00,SystemResetWarning,0828.8,5.00,000.00,030.6,030.2,000.0,038.6,032.4,033.2,0000.0,0025.68,0005.51,0003.36
2024-06-08 23:25:00,SystemResetWarning,0828.8,4.99,000.00,030.6,029.8,000.0,038.7,032.1,033.3,0000.0,0026.04,0005.65,0003.39
2024-06-08 23:26:00,SystemResetWarning,0828.7,4.99,000.00,030.3,027.6,000.0,038.8,031.1,033.9,0000.0,0027.55,0005.85,0003.42
2024-06-08 23:27:00,SystemResetWarning,0828.7,5.02,000.00,029.9,026.7,000.0,038.8,030.6,034.5,0000.0,0028.03,0005.98,0003.46
2024-06-08 23:28:00,SystemResetWarning,0828.7,5.00,000.00,029.7,026.9,000.0,038.6,030.6,035.0,0000.0,0029.95,0006.06,0003.49
2024-06-08 23:29:00,SystemResetWarning,0828.8,5.00,000.00,029.7,027.3,000.0,038.5,030.9,035.2,0000.0,0030.44,0006.12,0003.52
2024-06-08 23:30:00,SystemResetWarning,0828.9,5.00,000.00,029.7,027.7,000.0,038.4,031.1,034.9,0000.0,0031.26,0006.26,0003.56
2024-06-08 23:31:00,SystemResetWarning,0829.0,5.01,000.00,029.8,028.1,000.0,038.4,031.3,034.8,0000.0,0029.02,0006.34,0003.60
2024-06-08 23:32:00,SystemResetWarning,0829.0,5.00,000.00,029.8,028.4,000.0,038.3,031.4,034.8,0000.0,0028.27,0006.41,0003.62
2024-06-08 23:33:00,SystemResetWarning,0829.1,4.99,000.00,029.9,028.7,000.0,038.3,031.5,034.6,0000.0,0026.90,0006.40,0003.64
2024-06-08 23:34:00,SystemResetWarning,0829.1,5.00,000.00,029.9,028.9,000.0,038.3,031.6,034.8,0000.0,0026.18,0006.33,0003.67
2024-06-08 23:35:00,SystemResetWarning,0829.1,5.00,000.00,030.0,029.1,000.0,038.3,031.7,034.9,0000.0,0025.11,0006.15,0003.68
2024-06-08 23:36:00,SystemResetWarning,0829.2,5.01,000.00,030.0,029.3,000.0,038.3,031.8,034.6,0000.0,0026.27,0006.07,0003.68
2024-06-08 23:37:00,SystemResetWarning,0829.3,5.01,000.00,030.1,029.4,000.0,038.3,031.8,034.1,0000.0,0026.32,0006.03,0003.67
2024-06-08 23:38:00,SystemResetWarning,0829.4,5.00,000.00,030.1,029.6,000.0,038.4,031.9,033.5,0000.0,0025.53,0005.93,0003.68
2024-06-08 23:39:00,SystemResetWarning,0829.4,5.01,000.00,030.2,029.6,000.0,038.4,032.0,033.2,0000.0,0024.91,0005.89,0003.68
2024-06-08 23:40:00,SystemResetWarning,0829.3,4.97,000.00,030.1,028.1,000.0,038.5,031.2,033.1,0000.0,0023.22,0005.84,0003.67
2024-06-08 23:41:00,SystemResetWarning,0829.4,5.01,000.00,029.7,026.6,000.0,038.5,030.5,033.5,0000.0,0022.32,0005.68,0003.66
2024-06-08 23:42:00,SystemResetWarning,0829.3,5.02,000.00,029.5,026.6,000.0,038.4,030.3,034.0,0000.0,0020.19,0005.46,0003.64
2024-06-08 23:43:00,SystemResetWarning,0829.4,5.00,000.00,029.4,027.0,000.0,038.3,030.6,034.2,0000.0,0019.65,0005.36,0003.63
2024-06-08 23:44:00,SystemResetWarning,0829.4,5.00,000.00,029.4,027.4,000.0,038.2,030.8,034.6,0000.0,0019.71,0005.29,0003.64
2024-06-08 23:45:00,SystemResetWarning,0829.4,5.00,000.00,029.5,027.8,000.0,038.1,031.0,034.8,0000.0,0020.05,0005.32,0003.62
2024-06-08 23:46:00,SystemResetWarning,0829.4,5.00,000.00,029.5,028.1,000.0,038.1,031.1,034.9,0000.0,0019.86,0005.39,0003.62
2024-06-08 23:47:00,SystemResetWarning,0829.4,4.99,000.00,029.6,028.4,000.0,038.1,031.3,034.7,0000.0,0019.20,0005.41,0003.63
2024-06-08 23:48:00,SystemResetWarning,0829.4,4.99,000.00,029.6,028.7,000.0,038.0,031.4,034.6,0000.0,0017.42,0005.36,0003.65
2024-06-08 23:49:00,SystemResetWarning,0829.4,5.00,000.00,029.7,028.9,000.0,038.1,031.5,034.5,0000.0,0016.60,0005.33,0003.65
2024-06-08 23:50:00,SystemResetWarning,0829.5,5.00,000.00,029.8,029.1,000.0,038.1,031.6,034.3,0000.0,0015.75,0005.31,0003.65
2024-06-08 23:51:00,SystemResetWarning,0829.6,5.00,000.00,029.8,029.2,000.0,038.1,031.6,034.0,0000.0,0014.56,0005.24,0003.65
2024-06-08 23:52:00,SystemResetWarning,0829.7,5.01,000.00,029.9,029.3,000.0,038.1,031.7,033.5,0000.0,0014.73,0005.22,0003.66
2024-06-08 23:53:00,SystemResetWarning,0829.7,5.00,000.00,030.0,029.5,000.0,038.1,031.8,033.2,0000.0,0015.30,0005.27,0003.67
2024-06-08 23:54:00,SystemResetWarning,0829.7,4.99,000.00,030.0,028.9,000.0,038.2,031.5,032.8,0000.0,0015.76,0005.32,0003.66
2024-06-08 23:55:00,SystemResetWarning,0829.7,5.00,000.00,029.6,026.6,000.0,038.2,030.4,033.4,0000.0,0015.62,0005.32,0003.63
2024-06-08 23:56:00,SystemResetWarning,0829.7,5.00,000.00,029.2,025.5,000.0,038.2,029.8,034.6,0000.0,0014.86,0005.14,0003.60
2024-06-08 23:57:00,SystemResetWarning,0829.8,5.01,000.00,029.0,025.6,000.0,038.1,029.8,035.2,0000.0,0014.41,0005.01,0003.59
2024-06-08 23:58:00,SystemResetWarning,0829.8,5.01,000.00,028.9,026.1,000.0,037.9,030.0,035.0,0000.0,0014.05,0005.01,0003.58
2024-06-08 23:59:00,SystemResetWarning,0829.7,4.99,000.00,028.9,026.6,000.0,037.8,030.3,035.0,0000.0,0013.71,0004.98,0003.57
